GalileoSat-22

operational
NORAD ID: 43058 Int'l Des: 2017-079 Owner: GSAEU Country: I-EU Constellation: Galileo
MEOCIRCULAR

Über GalileoSat-22

Beschreibung wird geladen...

Live-Position

3D-Globus wird geladen...

Nächste Überflüge

Höhenverlauf

Altitude vs Time

uPlot chart will show altitude changes over time

Zweizeiliger Elementsatz

1 43058U 17079D 25298.52814622 .00000004 00000-0 00000+0 0 9993
2 43058 55.1473 227.9600 0004057 288.2544 71.7169 1.70473905 49013
Epoch: 25. Okt. 2025 • Age: 14 hours

Aktueller Status

Höhe 23219.8 km
Geschwindigkeit 3.67 km/s
Subsatellitenpunkt 7.07°N, 151.77°E
Startdatum 12. Dez. 2017
Alter 7.8 years
Typ navigation

Technische Details

Klassifizierung Payload
Masse 715.00 kg
Trockenmasse 700.00 kg
Gesamtmasse 715.00 kg
Länge 2.70 m
Durchmesser 1.60 m
Spannweite 14.70 m
Form Box+2 pan
Hersteller OHB
Bus-Typ GalileoSat
Phasenstatus In Orbit
Besitzer/Staat GSAEU/I-EU

Große Konstellationen

Loading constellations...